Location: Cortos
(40.7190°N, 4.5893°W)
Time: 08:47:23
(UTC+00:00)

Resurs 01 Rocket - Pass Details

Date: 05 July 2020
Orbit: 634 x 644 km, 98.0° (Epoch: 07 August)

Event Time Altitude Azimuth Distance (km) Brightness Sun altitude
Exits shadow 20:45:41 - 162° (SSE) 2,232 3.9 -9.0°
Reaches altitude 10° 20:46:11 10° 161° (SSE) 2,021 3.7 -9.0°
Maximum altitude 20:50:35 78° 77° (ENE) 655 1.6 -9.7°
Drops below altitude 10° 20:55:01 10° 350° (N) 2,031 5.0 -10.3°
Sets 20:57:13 0° 349° (N) 2,943 6.0 -10.6°
